Findlay, OH

4:15 PM EDT on April 23, 2017 (GMT -0400)
Findlay

Weather History for KFDY - October, 2013

Change the Weather History Date:

Sunday, October 13, 2013

  Actual Average Record
Temperature  
Mean Temperature 63 °F -  
Max Temperature 72 °F 63 °F 84 °F (1960)
Min Temperature 52 °F 42 °F 26 °F (1988)
Degree Days  
Heating Degree Days 2    
Growing Degree Days 13 (Base 50)    
Moisture  
Dew Point 48 °F    
Average Humidity 68    
Maximum Humidity 100    
Minimum Humidity 31    
Precipitation  
Precipitation 0.00 in - - ()
Sea Level Pressure  
Sea Level Pressure 30.23 in    
Wind  
Wind Speed 5 mph (NNW)    
Max Wind Speed 14 mph    
Max Gust Speed -    
Visibility 8 miles    
Events      
Averages and records for this station are not official NWS values.
T = Trace of Precipitation, MM = Missing Value Source: NWS Daily Summary

Daily Weather History Graph

Daily Weather History Graph

Search for Another Location

Airport or City:

Trip Planner

Search our weather history database for the weather conditions in past years. The results will help you decide how hot, cold, wet, or windy it might be!

Date:

Astronomy

Oct. 13, 2013 Rise Set
Actual Time 7:44 AM EDT 6:56 PM EDT
Civil Twilight 7:16 AM EDT 7:24 PM EDT
Nautical Twilight 6:44 AM EDT 7:56 PM EDT
Astronomical Twilight 6:12 AM EDT 8:28 PM EDT
Moon 3:49 PM EDT (10/13) 1:50 AM EDT (10/13)
Length of Visible Light 12h 07m
Length of Day
11h 12m
Waxing Gibbous, 69% of the Moon is Illuminated
Oct 13
Waxing Gibbous
Oct 18
Full
Oct 26
Last Quarter
Nov 3
New
Nov 10
First Quarter

Hourly Weather History & Observations

Time (EDT) Temp. Dew Point Humidity Pressure Visibility Wind Dir Wind Speed Gust Speed Precip Events Conditions
12:53 AM 57.9 °F 55.0 °F 90% 30.10 in 10.0 mi South 5.8 mph - N/A   Clear
1:53 AM 57.9 °F 55.0 °F 90% 30.10 in 9.0 mi SSW 5.8 mph - N/A   Clear
2:53 AM 57.9 °F 55.0 °F 90% 30.12 in 7.0 mi Calm Calm - N/A   Clear
3:53 AM 55.9 °F 54.0 °F 93% 30.13 in 4.0 mi Calm Calm - N/A   Clear
4:53 AM 55.9 °F 54.0 °F 93% 30.15 in 5.0 mi WSW 3.5 mph - N/A   Clear
5:48 AM 55.4 °F 55.4 °F 100% 30.18 in 4.0 mi Calm Calm - N/A   Mostly Cloudy
5:53 AM 55.9 °F 55.0 °F 97% 30.17 in 4.0 mi Calm Calm - N/A   Mostly Cloudy
6:53 AM 55.9 °F 54.0 °F 93% 30.20 in 4.0 mi Calm Calm - N/A   Mostly Cloudy
7:11 AM 57.2 °F 55.4 °F 94% 30.21 in 5.0 mi NNW 3.5 mph - N/A   Overcast
7:31 AM 57.2 °F 57.2 °F 100% 30.22 in 5.0 mi WNW 5.8 mph - N/A   Overcast
7:53 AM 60.1 °F 55.9 °F 86% 30.21 in 9.0 mi NW 8.1 mph - N/A   Overcast
8:31 AM 59.0 °F 53.6 °F 82% 30.24 in 10.0 mi NNW 8.1 mph - N/A   Overcast
8:53 AM 60.1 °F 54.0 °F 80% 30.23 in 10.0 mi North 6.9 mph - N/A   Overcast
9:20 AM 60.8 °F 53.6 °F 77% 30.26 in 10.0 mi NNW 9.2 mph - N/A   Overcast
9:53 AM 60.1 °F 51.1 °F 72% 30.26 in 10.0 mi NNW 10.4 mph - N/A   Overcast
10:53 AM 62.1 °F 48.0 °F 60% 30.28 in 10.0 mi NNW 13.8 mph - N/A   Overcast
11:22 AM 62.6 °F 48.2 °F 59% 30.29 in 10.0 mi North 11.5 mph - N/A   Mostly Cloudy
11:53 AM 66.0 °F 46.9 °F 50% 30.28 in 10.0 mi North 10.4 mph - N/A   Clear
12:53 PM 68.0 °F 46.0 °F 45% 30.28 in 10.0 mi Variable 4.6 mph - N/A   Clear
1:53 PM 70.0 °F 46.9 °F 44% 30.26 in 10.0 mi NNW 5.8 mph - N/A   Clear
2:53 PM 71.1 °F 45.0 °F 39% 30.25 in 10.0 mi North 4.6 mph - N/A   Clear
3:53 PM 71.1 °F 39.9 °F 32% 30.25 in 10.0 mi WNW 8.1 mph - N/A   Clear
4:53 PM 71.1 °F 39.0 °F 31% 30.25 in 10.0 mi NNW 9.2 mph - N/A   Clear
5:53 PM 69.1 °F 37.0 °F 31% 30.25 in 10.0 mi NW 9.2 mph - N/A   Clear
6:53 PM 64.0 °F 37.0 °F 37% 30.26 in 10.0 mi NW 6.9 mph - N/A   Clear
7:53 PM 60.1 °F 37.9 °F 44% 30.28 in 10.0 mi NNW 4.6 mph - N/A   Clear
8:53 PM 57.0 °F 39.9 °F 53% 30.29 in 10.0 mi NNW 6.9 mph - N/A   Clear
9:53 PM 55.9 °F 39.9 °F 55% 30.31 in 10.0 mi North 3.5 mph - N/A   Clear
10:53 PM 55.9 °F 39.9 °F 55% 30.31 in 10.0 mi North 4.6 mph - N/A   Clear
11:53 PM 52.0 °F 41.0 °F 66% 30.32 in 10.0 mi NNW 5.8 mph - N/A   Clear